Location: Caltech
(34.1382°N, 118.1253°W)
Time: 07:23:04
(UTC-07:00)

Cosmos 2237 Rocket - Visible Passes

Search period start: 30 October 2014 00:00
Search period end: 08 November 2014 23:00
Orbit: 836 x 849 km, 71.0° (Epoch: 30 October)

Date Brightness Start Highest point End Pass type
(mag) Time Alt. Az. Time Alt. Az. Time Alt. Az.
30 Oct 4.3 18:57:29 10° WSW 19:02:05 25° WNW 19:06:42 10° N visible
31 Oct 4.3 18:42:37 10° WSW 18:47:18 26° WNW 18:52:01 10° N visible
01 Nov 4.2 18:27:45 10° WSW 18:32:32 28° WNW 18:37:20 10° N visible
02 Nov 4.1 17:12:54 10° WSW 17:17:46 29° WNW 17:22:39 10° N visible
